Location: Holyhead Bay
(53.3667°N, 4.6667°W)
Time: 06:27:46
(UTC+00:00)

ADEOS Rocket - Pass Details

Date: 24 November 2020
Orbit: 858 x 1307 km, 98.7° (Epoch: 23 January)

Event Time Altitude Azimuth Distance (km) Brightness Sun altitude
Rises 18:18:05 0° 14° (NNE) 4,146 6.0 -18.3°
Reaches altitude 10° 18:20:45 10° 9° (N) 3,223 5.5 -18.7°
Maximum altitude 18:27:55 50° 298° (WNW) 1,612 4.4 -19.8°
Drops below altitude 10° 18:35:18 10° 227° (SW) 3,323 6.5 -20.9°
Sets 18:38:06 0° 222° (SW) 4,282 7.1 -21.3°
